CAPE
0 1 0 0 0 0 0 0 0 0 0 0 0 0 0 0 0 0 0 0 0 0 0 0 0 0 0 0 0 0 0 0 0 0 0 0 0 0 0 0 0 0 0 0
1 0 0 0 0 0 0 0 0 0 0 0 0 0 0 0 0 0 0 0 0 0 0 0 0 0 0 0 0 0 0 0 0 0 0 0 0 0 0 0 0 0 0 0
1 0 0 0 0 4 2 0 0 0 0 0 0 0 0 0 0 0 0 0 0 0 0 0 0 0 0 0 0 0 0 0 0 0 0 0 0 0 0 0 0 0 0 0
6 7 2 4 0 0 0 0 0 0 0 0 0 0 0 0 0 0 0 0 0 0 0 0 0 0 0 0 0 0 0 0 0 0 0 0 0 0 0 0 0 0 0 0
0 0 1 3 0 3 0 0 3 5 6 0 0 0 0 0 0 0 0 0 0 0 0 0 0 0 0 0 0 0 0 0 0 0 0 0 0 0 0 0 0 0 0 0
0 1 0 0 0 0 11 8 20 6 1 0 0 0 0 0 0 0 0 0 0 0 0 0 0 0 0 0 0 0 0 0 0 0 0 0 0 0 0 0 0 0 0 0
10 0 1 5 16 2 20 32 7 2 4 0 0 0 0 0 0 0 0 0 0 0 0 0 0 0 0 0 0 0 0 0 0 0 0 0 0 0 0 0 0 0 0 0
0 0 0 0 15 0 3 14 0 0 0 0 0 0 0 0 0 0 0 0 0 0 0 0 0 0 0 0 0 0 0 0 0 0 0 0 0 0 0 0 0 0 0 0
0 0 0 0 12 24 8 24 0 0 0 0 0 0 0 0 0 0 0 0 0 0 0 0 0 0 0 0 0 0 0 0 0 0 0 0 0 0 0 0 0 0 0 0
0 0 0 0 14 54 14 2 9 15 0 0 0 0 0 0 0 0 0 0 0 0 0 0 0 0 0 0 0 0 0 0 0 0 0 0 0 0 0 0 0 0 0 0
0 1 0 0 2 1 7 9 12 9 0 0 0 0 0 0 0 0 0 0 0 0 0 0 0 0 0 0 0 0 0 0 0 0 0 0 0 0 0 0 0 0 0 0
0 20 0 0 0 0 14 0 16 4 0 0 0 0 0 0 0 0 0 0 0 0 0 0 0 0 0 0 0 0 0 0 0 0 0 0 0 0 0 0 0 0 0 0
0 3 1 15 15 4 5 1 20 9 0 0 0 0 0 0 0 0 0 0 0 0 0 0 0 0 0 0 0 0 0 0 0 0 0 0 0 0 0 0 0 0 0 0
0 0 0 0 0 0 0 0 0 16 20 0 0 0 0 0 0 0 0 0 0 0 0 0 0 0 0 0 0 0 0 0 0 0 0 0 0 0 0 0 0 0 0 0
0 0 0 0 0 1 0 0 5 4 0 1 0 0 0 0 0 0 0 0 0 0 0 0 0 0 0 0 0 0 0 0 0 0 0 0 0 0 0 0 0 0 0 0
0 0 0 0 0 1 5 1 0 0 0 2 0 0 0 0 0 0 0 0 0 0 0 0 0 0 0 0 0 0 0 0 0 0 0 0 0 0 0 0 0 0 0 0
4 0 0 0 0 2 16 0 0 0 0 0 0 0 0 0 0 0 0 0 0 0 0 0 0 0 0 0 0 0 0 0 0 0 0 0 0 0 0 0 0 0 0 0
47 39 17 1 0 0 0 0 0 0 0 0 0 0 0 0 0 0 0 0 0 0 0 0 0 0 0 0 0 0 0 0 0 0 0 0 0 0 0 0 0 0 0 0
27 47 55 33 0 0 0 0 0 0 0 0 0 0 0 0 0 0 0 0 0 0 0 0 0 0 0 0 0 0 0 0 0 0 0 0 0 0 0 0 0 0 0 0
15 72 34 0 5 0 0 0 0 0 0 0 0 0 0 0 0 0 0 0 0 0 0 0 0 0 0 0 0 0 0 0 0 2 1 0 0 1 1 1 0 0 0 0
4 7 1 0 0 0 0 0 0 0 0 0 0 0 0 0 0 0 0 0 0 0 0 0 0 0 0 0 0 0 0 0 2 1 0 0 0 0 0 0 0 0 0 0
0 1 1 1 0 0 0 0 0 0 0 0 0 0 0 0 0 0 0 0 0 0 0 0 0 0 0 0 0 0 0 0 0 0 0 0 0 0 0 0 0 0 0 0
24 5 3 18 0 0 0 0 0 0 0 0 0 0 0 0 0 0 0 0 0 0 0 0 0 0 0 0 0 0 0 0 0 0 0 0 0 0 0 1 0 0 0 0
0 0 7 12 0 0 0 0 0 0 0 0 0 0 0 0 0 0 0 0 0 0 0 0 0 0 0 0 0 0 0 0 0 0 0 0 0 1 1 1 1 0 0 0
0 0 0 0 0 0 0 0 0 0 0 0 0 0 0 0 0 0 0 0 0 0 0 0 0 0 0 0 0 0 0 0 0 0 0 0 0 0 0 2 2 1 0 0
0 0 0 0 0 0 0 0 0 0 0 0 0 0 0 0 0 0 0 0 0 0 0 0 0 0 0 0 0 0 0 0 0 0 0 0 0 0 0 2 3 2 2 0
CIN
0 -1 0 0 0 0 0 0 0 0 0 0 0 0 0 0 0 0 0 0 0 0 0 0 0 0 0 0 0 0 0 0 0 0 0 0 0 0 0 0 0 0 0 0
0 0 0 0 0 -1 -1 0 0 0 0 0 0 0 0 0 0 0 0 0 0 0 0 0 0 0 0 0 0 0 0 0 0 0 0 0 0 0 0 0 0 0 0 0
0 0 0 0 0 0 -1 0 0 0 0 0 0 0 0 0 0 0 0 0 0 0 0 0 0 0 0 0 0 0 0 0 0 0 0 0 0 0 0 0 0 0 0 0
-4 -2 -2 -1 0 0 0 0 0 0 0 0 0 0 0 0 0 0 0 0 0 0 0 0 0 0 0 0 0 0 0 0 0 0 0 0 0 0 0 0 0 0 0 0
0 -5 -2 0 0 -5 0 0 -7 -9 -8 0 0 0 0 0 0 0 0 0 0 0 0 0 0 0 0 0 0 0 0 0 0 0 0 0 0 0 0 0 0 0 0 0
0 -4 0 0 0 0 -3 -2 -3 -14 -4 0 0 0 0 0 0 0 0 0 0 0 0 0 0 0 0 0 0 0 0 0 0 0 0 0 0 0 0 0 0 0 0 0
-1 0 -2 -8 -2 -9 -3 -1 -3 -5 -1 0 0 0 0 0 0 0 0 0 0 0 0 0 0 0 0 0 0 0 0 0 0 0 0 0 0 0 0 0 0 0 0 0
0 0 0 -5 -4 0 -7 -3 0 0 0 0 0 0 0 0 0 0 0 0 0 0 0 0 0 0 0 0 0 0 0 0 0 0 0 0 0 0 0 0 0 0 0 0
0 0 0 0 -12 -2 -5 -1 0 0 0 0 0 0 0 0 0 0 0 0 0 0 0 0 0 0 0 0 0 0 0 0 0 0 0 0 0 0 0 0 0 0 0 0
0 0 0 0 -10 -7 -8 -11 -1 -9 0 0 0 0 0 0 0 0 0 0 0 0 0 0 0 0 0 0 0 0 0 0 0 0 0 0 0 0 0 0 0 0 0 0
-3 -4 0 0 -1 0 -8 -5 -7 -14 -1 0 0 0 0 0 0 0 0 0 0 0 0 0 0 0 0 0 0 0 0 0 0 0 0 0 0 0 0 0 0 0 0 0
0 -6 0 0 0 0 -8 0 -17 -6 0 0 0 0 0 0 0 0 0 0 0 0 0 0 0 0 0 0 0 0 0 0 0 0 0 0 0 0 0 0 0 0 0 0
0 -6 -5 -9 -15 -11 -13 -1 -10 -24 0 0 0 0 0 0 0 0 0 0 0 0 0 0 0 0 0 0 0 0 0 0 0 0 0 0 0 0 0 0 0 0 0 0
-17 0 0 0 0 0 0 0 0 -9 -2 0 0 0 0 0 0 0 0 0 0 0 0 0 0 0 0 0 0 0 0 0 0 0 0 0 0 0 0 0 0 0 0 0
0 0 0 0 0 -8 0 0 -46 -26 0 -1 0 0 0 0 0 0 0 0 0 0 0 0 0 0 0 0 0 0 0 0 0 0 0 0 0 0 0 0 0 0 0 0
0 0 0 0 0 -22 -27 -32 0 0 0 -35 0 0 0 0 0 0 0 0 0 0 0 0 0 0 0 0 0 0 0 0 0 0 0 0 0 0 0 0 0 0 0 0
-71 -12 0 0 0 -16 -8 0 0 0 0 0 0 0 0 0 0 0 0 0 0 0 0 0 0 0 0 0 0 0 0 0 0 0 0 0 0 0 0 0 0 0 0 0
-27 -32 -26 -6 0 0 0 0 0 0 0 0 0 0 0 0 0 0 0 0 0 0 0 0 0 0 0 0 0 0 0 0 0 0 0 0 0 0 0 0 0 0 0 0
-11 -17 -6 -21 -4 0 0 0 0 0 0 0 0 0 0 0 0 0 0 0 0 0 0 0 0 0 0 0 0 0 0 0 0 0 0 0 0 0 0 0 0 0 0 0
-50 -15 -12 0 -21 0 0 0 0 0 0 0 0 0 0 0 0 0 0 0 0 0 0 0 0 0 0 0 0 0 0 0 0 0 0 0 0 0 0 0 0 0 0 0
-24 -21 -38 -4 0 0 0 0 0 0 0 0 0 0 0 0 0 0 0 0 0 0 0 0 0 0 0 0 0 0 0 0 0 0 0 0 0 0 0 0 0 0 0 0
0 -36 -6 -2 0 0 0 0 0 0 0 0 0 0 0 0 0 0 0 0 0 0 0 0 0 0 0 0 0 0 0 0 0 0 0 0 0 0 0 0 0 0 0 0
-13 -78 -83 -73 0 0 0 0 0 0 0 0 0 0 0 0 0 0 0 0 0 0 0 0 0 0 0 0 0 0 0 0 0 0 0 0 0 0 0 0 0 0 0 0
0 0 -60 -87 -66 0 0 0 0 0 0 0 0 0 0 0 0 0 0 0 0 0 0 0 0 0 0 0 0 0 0 0 0 0 0 0 0 0 0 0 0 0 0 0
0 0 -12 0 0 0 0 0 0 0 0 0 0 0 0 0 0 0 0 0 0 0 0 0 0 0 0 0 0 0 0 0 0 0 0 0 0 0 0 0 0 0 0 0
0 0 0 0 0 0 0 0 0 0 0 0 0 0 0 0 0 0 0 0 0 0 0 0 0 0 0 0 0 0 0 0 0 0 0 0 0 0 0 0 0 0 0 0
Wind_Speed
22 31 36 30 30 30 28 31 34 30 27 30 36 40 38 36 34 35 36 40 43 42 41 37 33 27 24 18 16 16 16 17 16 16 17 19 18 18 18 17 16 16 17 17
29 40 31 28 30 32 34 34 35 32 32 32 37 44 40 35 33 33 35 39 42 43 43 41 39 37 32 29 22 18 18 18 17 18 18 20 20 20 20 19 17 18 18 19
36 28 29 32 32 36 36 40 37 37 33 36 40 50 39 34 34 35 35 34 37 36 38 37 34 35 36 35 30 23 20 20 18 18 18 19 21 23 23 23 24 23 22 20
37 36 28 31 37 32 41 30 33 37 36 42 30 52 40 34 36 34 34 35 35 39 35 32 27 26 27 33 33 30 25 21 20 20 21 21 21 22 22 24 26 26 24 24
34 28 36 37 34 29 36 26 29 35 37 40 39 45 42 29 32 28 27 26 33 31 28 29 28 28 25 22 22 25 25 24 23 24 23 23 25 25 25 26 28 27 27 26
35 23 29 34 29 28 25 27 30 30 33 48 41 38 49 37 32 27 25 21 22 20 22 20 17 15 17 18 20 22 24 25 25 25 24 26 27 27 28 27 27 28 30 30
34 40 30 25 30 26 29 27 35 42 43 49 33 36 49 29 28 22 22 18 22 17 13 11 12 16 18 20 21 23 25 27 28 29 28 28 30 32 32 31 31 30 30 29
39 42 38 30 32 33 31 30 37 46 47 46 32 44 40 28 26 27 27 26 22 14 11 12 14 16 19 21 23 25 26 29 30 30 32 33 33 33 33 33 34 33 32 31
36 42 28 31 28 25 31 39 30 36 34 41 40 42 42 38 37 31 25 19 16 13 14 15 17 19 20 22 24 26 28 30 32 34 33 33 34 34 35 36 35 35 34 33
29 38 30 27 27 31 31 25 35 36 46 50 45 46 45 31 27 28 27 21 18 15 15 15 16 18 21 24 26 28 31 32 34 35 35 35 35 36 37 37 38 36 36 34
28 31 30 23 33 34 32 33 32 31 36 45 49 46 33 35 34 31 27 23 14 14 16 16 17 20 23 25 28 31 33 35 36 37 37 38 38 39 38 38 38 38 37 36
28 28 37 34 27 28 32 35 32 39 41 40 41 48 23 19 21 16 13 10 11 12 14 17 21 24 27 30 32 33 34 35 37 38 38 39 40 40 40 41 40 38 38 33
24 33 37 35 31 29 33 36 32 33 33 43 44 47 27 30 21 14 12 13 13 14 18 21 23 26 29 31 33 34 35 37 37 38 38 39 39 39 39 40 40 40 38 35
21 30 38 44 37 29 35 33 33 35 41 43 41 43 34 22 19 20 22 20 19 20 22 24 26 28 30 33 34 35 36 36 37 38 38 38 39 39 40 40 40 41 39 39
23 34 32 35 30 26 30 32 32 36 40 40 43 41 36 34 32 26 27 25 24 26 28 30 31 33 33 35 34 35 36 36 38 38 38 39 40 40 40 40 41 41 41 40
27 34 32 34 31 29 31 28 28 30 32 35 39 43 41 35 37 34 32 31 32 33 34 35 36 35 34 35 35 36 36 36 36 37 38 38 39 40 40 41 42 41 41 41
32 33 30 39 30 32 41 36 31 32 34 32 39 34 44 38 36 40 41 38 39 35 34 34 33 32 32 32 33 35 35 34 35 36 37 39 40 40 41 41 41 41 41 40
37 37 35 37 27 43 39 42 34 35 38 34 38 50 39 38 36 36 35 35 33 30 28 27 29 31 29 29 31 33 33 34 35 36 37 38 39 40 40 40 40 40 40 40
36 36 42 40 39 36 37 33 28 30 42 28 28 40 43 36 32 34 27 23 22 22 23 25 28 29 28 28 29 30 31 33 35 37 38 39 39 40 40 40 40 40 40 40
35 34 40 33 43 44 37 27 16 19 43 20 22 22 38 26 30 30 20 18 17 18 20 24 25 24 27 29 30 31 34 34 36 38 38 39 38 39 39 40 40 38 38 39
40 41 45 39 37 34 30 22 16 28 32 18 19 27 24 24 26 21 14 16 17 19 20 21 23 25 27 28 29 32 33 35 35 36 38 37 37 38 38 39 38 38 38 37
44 43 41 37 34 41 20 20 22 22 19 18 21 22 19 15 13 11 12 14 16 17 19 21 24 26 28 30 32 33 34 35 35 37 38 38 38 38 38 38 37 37 36 36
41 36 38 40 41 25 22 24 26 25 27 26 23 19 13 11 12 11 12 13 15 17 20 23 26 28 30 31 33 36 36 37 38 38 38 38 38 38 37 38 37 37 35 35
36 32 36 34 40 34 31 28 24 25 23 21 17 14 14 14 12 13 14 15 17 20 22 25 27 29 32 33 34 34 35 36 38 39 39 38 37 38 37 36 35 36 35 36
29 27 33 36 34 28 30 25 24 24 20 18 19 19 16 14 16 16 18 19 21 23 25 26 29 31 33 34 35 34 36 36 38 38 39 39 38 38 38 36 35 35 33 33
29 32 32 37 34 33 32 27 23 22 20 19 16 16 17 17 17 18 20 22 24 26 27 29 31 33 34 35 36 36 37 37 39 40 39 39 39 39 38 38 38 33 33 30
Wind_Direction
261 256 253 257 261 265 271 270 270 277 279 282 279 279 280 280 282 283 283 281 279 280 279 282 284 289 292 291 276 266 261 264 267 268 269 271 266 265 263 258 255 257 262 260
260 255 260 265 263 264 264 268 271 278 280 283 282 278 282 283 283 284 286 285 283 280 279 279 279 282 285 288 283 268 257 262 260 268 272 277 277 276 273 274 263 253 257 263
255 266 260 260 262 259 262 264 269 273 282 283 285 277 281 283 284 286 286 287 287 285 284 285 284 282 282 283 287 283 271 265 258 259 273 280 287 287 284 279 276 269 266 263
260 260 268 258 259 260 261 269 274 274 276 274 289 273 279 286 286 286 285 288 288 283 286 289 292 291 289 286 286 286 284 276 266 264 270 267 269 273 277 280 281 278 272 267
260 263 256 260 261 261 265 273 271 272 273 278 276 276 278 291 289 292 294 292 293 287 290 289 292 292 297 301 301 300 292 286 279 274 268 271 272 278 283 284 284 282 280 274
258 275 266 260 263 260 270 272 271 277 275 270 271 273 275 284 292 296 295 294 303 305 297 297 303 310 310 313 313 312 308 302 293 285 278 274 274 277 282 283 282 283 283 281
261 258 268 270 259 260 256 261 265 267 267 269 281 271 272 289 291 299 294 298 307 307 315 318 317 319 320 320 319 315 314 311 305 297 289 283 281 281 280 282 283 284 284 283
257 261 254 260 259 256 254 252 263 267 268 272 275 270 276 287 293 292 287 288 297 301 308 311 317 322 323 323 321 317 314 310 309 309 300 292 287 285 284 284 284 284 284 284
262 263 272 258 259 252 256 251 258 273 277 273 272 277 281 281 284 289 289 287 285 289 301 308 314 317 321 323 322 320 316 313 308 305 306 304 297 291 287 287 286 286 285 287
269 269 267 262 253 255 258 252 255 262 265 269 274 275 274 289 294 282 282 282 279 285 299 311 317 320 321 320 318 316 313 310 307 306 304 303 304 301 296 292 288 288 288 287
265 268 275 262 251 249 252 255 259 265 265 269 272 275 286 285 285 280 282 285 271 284 298 309 316 319 319 319 318 315 310 306 304 305 304 302 301 301 300 297 295 293 290 288
251 272 265 261 268 261 253 251 249 258 262 264 272 272 294 304 316 304 292 284 287 293 301 308 312 315 317 317 317 315 312 308 305 305 305 303 302 301 299 297 298 299 296 293
244 259 263 267 267 263 255 252 255 259 268 263 267 273 283 279 294 297 297 299 294 297 303 307 311 312 314 315 315 314 312 309 308 307 306 306 307 305 303 302 302 301 300 299
244 257 254 258 267 263 258 256 252 254 260 264 263 267 270 293 277 277 291 294 292 295 300 305 308 310 311 313 313 312 312 311 311 311 310 308 308 307 306 305 304 303 301 298
248 253 254 259 267 270 265 256 252 252 256 261 265 268 270 268 274 280 288 288 289 291 296 301 304 306 309 311 312 313 314 314 312 311 311 311 310 309 309 308 307 306 304 300
243 260 257 262 259 265 265 265 258 254 256 262 266 272 270 275 274 277 283 285 285 289 292 297 301 302 304 309 312 312 313 315 316 315 315 314 313 312 310 310 310 309 307 304
242 251 259 262 262 262 262 258 258 263 263 262 265 264 270 275 275 276 280 282 283 287 291 295 301 302 305 310 312 313 315 318 320 321 320 318 316 314 312 311 311 311 310 309
243 247 257 262 261 258 264 264 261 262 264 264 269 267 276 278 281 283 284 283 285 288 292 297 301 305 311 314 316 316 318 320 321 321 322 322 321 320 318 315 313 312 312 312
245 244 253 256 257 269 266 265 262 259 267 263 261 232 275 280 283 283 288 290 289 289 294 299 304 307 312 317 319 320 320 322 321 320 320 321 321 321 321 319 315 312 310 310
248 249 248 261 258 257 259 263 268 274 271 269 262 258 274 277 276 282 285 292 296 299 303 305 308 313 313 315 319 317 315 318 318 319 320 320 319 320 320 319 318 316 312 309
247 251 250 252 258 268 269 268 255 255 276 289 279 280 282 275 276 287 282 289 296 302 307 313 315 316 316 321 324 320 318 318 320 320 319 320 320 319 320 317 317 316 314 311
246 244 247 252 256 262 262 253 247 269 281 287 294 294 293 288 291 289 289 291 297 303 309 314 315 316 319 320 318 316 317 319 320 318 316 315 316 316 315 316 319 318 318 315
243 242 247 252 258 276 266 267 268 272 274 282 288 291 287 285 291 290 291 296 302 307 310 314 314 314 316 318 318 313 314 316 316 315 315 316 316 316 316 315 316 318 318 316
251 252 253 257 262 269 269 271 271 272 280 279 283 287 284 284 281 288 293 298 303 307 310 313 314 314 314 316 316 316 317 317 316 314 314 316 317 317 317 317 318 316 316 315
258 255 255 263 270 276 272 265 266 273 276 277 285 282 281 280 286 290 293 298 302 305 309 312 312 312 313 315 315 316 315 315 314 313 313 313 314 314 314 317 317 317 317 317
260 260 255 261 267 268 270 265 269 269 275 277 275 278 284 284 287 292 295 300 303 305 309 310 312 312 313 313 312 312 311 311 309 309 310 310 310 311 312 313 313 318 318 319